Dewpoint
1 2 2 2 2 1 1 1 -1 -1 1 -1 -1 -0 0 0 -3 -4 -5 -4 -6 -6 -4 1 -0 2 6 5 4 4 2 2 1 3 0 1 1 -3 -4 -6 -3 -4 -5 -8 -12 -7 -3
2 1 1 1 2 1 1 1 -0 -1 -2 -1 -0 0 -0 -0 -1 -4 -8 -7 -6 -6 -6 -4 0 1 1 6 3 2 2 1 1 2 1 0 -0 -4 -6 -6 -4 -4 -6 -6 -5 -7 -3
1 0 2 1 1 1 0 1 -1 -0 -1 -0 -1 -1 -0 -1 -2 -4 -6 -8 -9 -9 -8 -8 0 1 2 2 4 3 3 1 0 2 2 -1 -1 -3 -5 -6 -7 -5 -5 -5 -4 -6 -4
1 1 1 1 1 1 0 -0 -1 -1 -1 -1 -1 -1 -1 -1 -6 -9 -10 -12 -15 -15 -13 -8 -1 1 2 2 4 7 8 4 3 4 1 -0 -1 -2 -5 -6 -5 -5 -5 -3 -4 -5 -5
-1 -1 -1 0 1 1 1 0 0 -1 -2 -1 -2 -1 -1 -3 -7 -11 -13 -15 -15 -13 -10 -1 2 2 -1 2 4 6 6 7 6 6 2 0 1 -1 -4 -3 -3 -4 -2 -2 -3 -4 -4
-0 -0 -0 -1 -1 -1 1 1 -1 -0 -1 -1 -3 -5 -6 -6 -5 -6 -8 -9 -9 -6 1 2 3 1 -1 2 5 3 5 5 7 7 4 2 0 -1 -1 -2 -1 -2 -3 -2 -3 -2 -4
-0 -0 -0 -1 0 -1 -2 -0 0 0 -1 -1 -2 -3 -2 -4 -6 -4 -3 -6 -6 -7 -5 0 1 -0 3 3 5 4 2 5 4 4 3 0 1 2 -2 -2 -4 -4 -6 -3 -3 -2 -3
-1 -0 0 -1 -1 -1 -2 -2 -2 -1 -0 -1 -2 -1 -1 -3 -4 -2 -2 -0 -2 -2 -1 -5 -7 -1 1 0 4 4 2 5 3 4 1 1 3 -1 -2 -1 -3 -5 -5 -5 -2 -2 -3
-0 -1 -1 -0 -1 -0 -1 -1 -1 -1 -1 -1 -1 -3 -4 -5 -3 -3 -1 1 0 -1 -1 -2 -2 -2 -2 2 4 4 4 3 3 3 2 3 1 -2 -1 0 -0 -1 -5 -4 -1 -1 -2
-1 -2 -1 -1 -1 -1 -1 -1 -1 -1 -2 -3 -3 -4 -7 -6 -2 -2 0 1 -0 -1 1 -1 2 2 2 2 4 3 5 2 2 3 2 1 -1 -2 -1 -0 -1 1 -2 -2 1 1 2
-3 -2 -2 -2 -2 -2 -1 -1 -1 -2 -2 -3 -8 -8 -10 -6 -1 -1 1 0 -1 0 -2 1 -0 0 1 1 4 3 5 2 2 2 1 2 1 -0 -0 -2 -3 -1 -2 1 1 1 1
-3 -3 -2 -2 -2 -2 -2 -1 -1 -1 -2 -7 -8 -1 -1 -1 -1 -0 -1 -2 -0 -5 -0 1 -0 0 -1 2 3 3 3 2 1 2 0 1 -1 -1 -2 -3 -4 -2 1 3 3 3 4
-3 -3 -3 -3 -3 -2 -2 -2 -1 -1 -1 -10 -6 -1 -1 -1 -1 -1 -2 -2 -6 -3 -3 -1 -0 -0 -0 1 2 4 5 5 4 5 4 2 2 -0 -2 -1 -2 1 1 5 5 5 5
-3 -3 -4 -4 -3 -3 -2 -3 -3 -1 -3 -11 -3 -1 -1 -1 -0 -1 -1 -5 -5 -5 1 -1 -1 -1 1 3 3 5 5 7 4 2 3 4 5 1 -0 -0 -0 1 0 5 5 7 5
-3 -3 -3 -4 -4 -3 -3 -3 -3 -2 -4 -9 -2 -1 -2 -4 -2 -2 -2 -5 -3 0 -0 0 -0 -1 1 2 1 4 5 6 4 2 4 3 3 -1 -1 -1 -2 1 3 -1 2 1 3
-3 -3 -4 -4 -4 -4 -3 -4 -3 -3 -4 -7 -2 -2 -3 -2 -2 -2 -5 -3 -2 -2 -3 -1 2 -0 1 2 2 2 6 2 3 0 -1 1 3 -1 -1 -1 -1 -1 -2 3 2 4 5
-4 -3 -3 -4 -4 -4 -4 -4 -3 -3 -5 -5 -4 -3 -4 -3 -3 -3 -5 -3 -2 -4 -4 -1 0 1 1 2 2 3 4 3 0 1 -2 -1 1 1 0 1 1 1 1 1 1 3 3
-3 -4 -3 -4 -5 -4 -5 -5 -4 -4 -6 -7 -4 -5 -4 -9 -6 -6 -7 -4 -5 -4 -3 -0 1 1 1 2 2 3 4 4 1 -0 1 -2 0 3 2 -1 -2 -1 0 0 3 3 2
-4 -4 -4 -3 -5 -5 -4 -5 -4 -8 -4 -3 -2 -3 -4 -8 -4 -4 -5 -4 -4 -4 -2 -2 -1 -0 -2 1 2 3 3 1 2 2 1 -2 2 4 3 0 -1 0 -1 -0 -1 0 1
-4 -3 -4 -4 -5 -5 -4 -5 -5 -9 -6 -4 -4 -6 -5 -7 -4 -5 -3 -4 -3 -5 -3 -4 -3 -1 -3 -2 1 -0 -1 1 -1 0 3 4 3 2 4 3 0 1 1 -1 0 2 2
-4 -4 -4 -5 -5 -5 -5 -5 -5 -7 -7 -4 -4 -4 -4 -8 -7 -7 -4 -4 -3 -3 -4 -4 -4 -3 -2 -2 -3 -2 0 -2 -3 2 2 4 6 4 0 -1 -1 0 1 -0 1 0 1
-4 -4 -5 -5 -5 -5 -5 -5 -4 -5 -10 -7 -5 -4 -5 -4 -4 -5 -8 -7 -6 -5 -3 -3 -3 -3 -2 -2 -3 -2 -3 -2 0 3 4 3 6 4 5 1 -1 -0 -0 0 -1 -0 -1
-4 -5 -5 -5 -5 -5 -5 -5 -5 -6 -6 -6 -6 -5 -4 -5 -9 -9 -10 -4 -4 -4 -5 -4 -3 -2 -2 -3 -3 -2 -3 -4 -2 0 2 3 4 5 5 0 0 3 0 -0 -0 -2 -1
-4 -4 -5 -5 -5 -5 -5 -5 -5 -6 -5 -6 -5 -5 -4 -7 -9 -10 -8 -5 -5 -4 -3 -4 -4 -3 -4 -3 -4 -3 -2 -1 -3 -1 1 3 5 3 4 0 5 1 -3 -3 -2 -2 -3
-4 -4 -4 -4 -5 -5 -5 -5 -5 -5 -5 -7 -6 -5 -3 -5 -6 -6 -5 -7 -5 -5 -5 -5 -3 -3 -3 -2 -2 -1 2 3 1 1 1 2 3 5 5 5 2 -0 -3 -2 -1 -1 -4
-3 -3 -4 -4 -5 -5 -6 -6 -12 -21 -20 -12 -5 -4 -3 -4 -8 -4 -4 -5 -4 -5 -6 -6 -6 -3 -2 -1 -1 1 3 1 3 4 1 3 3 5 5 6 6 0 -4 -4 -3 1 -3
-3 -3 -4 -4 -5 -10 -15 -18 -19 -27 -24 -14 -6 -5 -4 -4 -5 -4 -5 -4 -4 -4 -4 -6 -5 -4 -4 -1 0 3 3 3 4 4 4 5 5 5 6 6 2 -1 -2 -4 1 -1 -5
-4 -5 -7 -9 -7 -20 -19 -17 -15 -13 -15 -13 -5 -5 -3 -4 -4 -5 -4 -4 -4 -5 -4 -6 -5 -4 -3 -2 -1 -0 3 4 2 1 5 5 5 6 5 5 5 -4 -2 -1 -3 -4 -3
-7 -9 -13 -15 -14 -30 -20 -15 -15 -9 -7 -7 -5 -5 -5 -4 -5 -6 -4 -3 -3 -4 -4 -5 -5 -4 -3 -2 -3 -3 -1 1 2 3 2 4 -1 3 2 2 -4 -4 -4 -4 -3 -3 -3
Wind_Speed
29 31 30 29 30 28 28 26 25 22 19 16 12 10 11 11 13 12 12 13 11 13 11 10 16 21 3 12 18 11 10 5 23 28 27 27 28 12 7 7 10 7 2 3 14 4 12
28 29 30 30 30 30 27 26 25 22 19 15 13 13 15 13 12 14 13 14 12 14 14 10 10 21 22 15 21 20 11 10 14 33 30 31 23 21 12 6 6 13 14 1 5 6 1
29 30 31 31 31 30 29 26 25 22 19 17 16 17 16 14 13 15 14 14 15 13 16 13 8 15 16 23 9 15 17 15 11 33 34 34 10 21 10 4 10 3 4 2 4 5 3
29 31 31 31 31 31 30 28 24 23 20 18 18 17 16 15 15 16 18 16 17 17 18 20 10 8 12 14 18 14 15 13 13 27 30 33 18 24 5 3 4 8 5 5 4 8 2
28 28 28 29 30 30 31 30 27 23 21 19 18 17 16 17 17 16 17 18 19 17 16 11 10 8 9 9 24 22 13 12 17 20 22 25 20 6 8 4 4 3 6 5 2 7 5
32 29 29 28 27 28 29 28 29 26 23 20 19 18 16 16 18 18 19 18 10 7 3 3 9 5 15 10 19 28 21 10 18 20 20 11 10 5 2 5 14 8 6 3 7 6 2
32 32 31 26 28 29 28 27 27 29 25 22 20 19 19 18 18 18 15 13 6 2 3 9 7 11 8 5 13 30 30 19 15 25 7 8 7 16 15 7 5 6 9 6 3 6 5
31 33 33 30 28 29 29 28 26 26 27 25 22 20 20 19 18 9 13 8 7 8 12 15 15 26 17 20 7 26 32 17 13 15 7 5 19 11 9 10 5 6 8 5 2 4 5
28 31 33 34 33 31 28 28 28 28 30 26 23 22 20 19 10 10 11 8 11 15 4 12 11 11 13 15 12 24 37 19 15 9 16 11 3 9 8 8 11 3 8 6 5 4 3
29 27 30 32 32 34 32 31 30 29 27 27 26 22 19 18 3 12 8 12 14 11 2 6 7 3 11 10 8 23 39 25 6 17 13 3 6 16 10 14 13 8 6 6 8 6 5
31 31 30 31 31 29 34 33 33 32 30 28 24 20 17 13 12 9 10 14 15 5 3 8 7 16 14 12 15 19 39 17 14 10 8 10 14 18 19 17 9 6 7 8 7 6 5
33 34 34 33 31 31 31 33 33 34 33 28 24 14 15 11 7 5 12 15 9 5 3 4 3 6 9 4 9 11 30 15 14 7 4 7 15 10 11 6 11 6 7 6 5 4 3
34 34 35 35 34 33 33 33 34 34 35 26 19 10 12 11 10 9 10 8 4 4 2 5 4 7 7 3 3 6 23 18 9 13 12 5 5 3 11 9 6 6 11 1 1 1 5
34 35 35 35 36 35 33 33 34 36 34 24 12 9 12 17 12 8 6 5 7 4 3 4 7 5 4 3 3 5 21 19 14 3 7 12 7 11 9 11 12 14 13 6 8 5 3
34 35 36 36 37 37 35 33 33 35 34 19 7 8 14 18 13 6 4 5 3 5 5 9 10 4 6 6 4 5 12 22 11 11 7 12 7 4 5 4 13 7 11 7 7 3 4
34 35 36 37 37 38 37 34 34 35 34 15 6 5 21 21 11 2 5 3 3 4 9 4 3 4 4 6 6 9 8 14 10 9 3 6 4 1 3 4 2 18 9 4 1 8 5
32 33 34 37 37 38 38 35 34 34 32 15 5 4 22 13 9 8 3 3 4 13 15 3 4 4 2 3 1 3 4 4 20 11 3 4 5 3 5 9 17 4 12 3 5 5 10
32 33 34 35 37 37 37 37 33 31 30 21 7 3 17 20 8 4 2 7 9 8 17 4 3 4 3 4 4 2 4 5 13 15 6 4 5 8 10 1 3 4 13 5 8 12 1
32 33 33 34 36 36 36 37 33 25 24 19 4 5 10 20 5 6 7 5 2 9 8 9 5 6 2 4 4 4 4 8 19 9 5 5 2 5 3 3 2 12 9 19 13 4 8
33 34 34 35 34 35 36 35 35 24 18 11 4 4 8 10 4 3 7 5 9 17 4 11 9 4 7 4 2 6 9 4 20 11 15 15 3 9 15 24 5 3 12 5 9 4 8
33 33 33 33 33 33 33 33 32 26 17 6 7 3 3 3 4 4 5 4 8 7 5 7 4 3 6 4 8 4 2 9 8 11 4 6 4 4 5 8 13 7 14 10 14 18 14
32 33 33 33 32 33 32 30 29 28 19 18 6 6 7 6 5 6 4 2 2 5 5 6 3 5 5 8 10 11 7 4 3 8 8 4 2 3 5 8 11 8 15 16 16 19 17
32 34 34 33 33 33 32 28 24 21 20 9 14 10 6 4 3 4 2 5 8 14 7 14 13 13 12 14 10 17 20 18 14 8 5 5 5 5 5 3 3 4 16 20 17 7 18
31 33 34 35 34 33 32 27 22 17 11 9 8 10 5 4 2 2 4 5 11 12 7 19 19 7 6 17 29 19 20 19 17 18 13 4 3 5 5 3 8 7 7 17 22 15 17
30 33 35 36 35 35 31 25 20 14 9 6 4 5 5 4 3 5 11 5 18 18 5 13 12 19 29 14 4 3 3 4 10 18 18 14 3 3 5 12 4 2 7 10 10 15 8
30 31 35 36 36 35 31 25 20 14 10 7 3 2 4 5 4 7 7 7 4 7 7 6 23 15 1 3 3 3 5 5 5 2 14 15 14 3 3 5 11 22 10 3 7 12 10
32 32 34 36 36 35 29 24 20 14 11 9 3 3 5 5 6 8 3 5 9 10 4 8 21 12 14 3 2 3 3 1 3 4 5 6 7 13 5 4 6 4 5 13 7 9 5
33 34 36 38 37 34 26 22 19 16 13 9 3 4 8 5 17 6 8 8 6 11 4 16 11 4 4 6 3 4 3 3 1 3 3 6 7 5 4 3 6 5 3 8 4 7 8
34 36 37 40 38 33 23 18 19 17 15 9 8 8 11 9 10 16 5 6 6 13 13 11 5 5 4 3 3 4 3 4 5 2 3 2 5 2 3 2 3 11 6 12 10 9 9
Wind_Direction
17 12 11 10 3 2 1 359 357 356 352 349 339 330 321 313 311 303 298 302 299 305 319 306 287 269 269 214 220 169 145 120 202 195 197 185 180 163 174 184 158 187 254 216 245 304 167
13 15 13 10 8 5 3 2 4 3 360 357 352 339 331 319 306 313 302 294 297 295 301 299 273 277 290 243 233 216 232 267 235 198 198 190 192 178 168 187 173 197 216 78 178 220 126
16 15 13 11 12 6 5 5 3 3 4 359 351 341 331 327 320 312 307 296 293 290 290 300 277 280 283 261 209 231 239 248 249 200 196 193 198 184 165 156 205 166 169 148 221 207 143
12 13 12 10 11 9 8 5 3 1 359 356 348 345 341 332 327 311 303 299 293 293 285 284 258 265 262 262 208 207 180 192 200 200 201 190 188 199 187 178 103 133 94 150 239 159 171
10 3 3 6 7 8 7 6 4 1 356 353 348 344 336 333 325 321 314 307 301 293 281 270 240 227 265 244 230 190 185 183 195 196 192 200 196 195 203 124 93 172 177 167 179 215 134
14 7 7 0 359 358 2 4 4 1 359 353 351 346 340 334 331 330 321 323 304 311 130 162 211 179 237 242 219 204 197 195 167 175 186 186 180 156 125 146 188 164 152 170 169 203 163
16 14 13 6 6 0 356 356 2 359 357 354 351 346 343 335 333 336 341 2 1 297 265 223 209 215 201 243 234 218 204 187 178 160 168 183 160 198 191 150 149 131 130 155 212 184 133
16 14 12 7 4 4 1 357 355 352 351 352 348 341 337 334 331 347 354 20 17 328 305 302 267 235 246 246 309 215 203 174 165 179 130 126 214 199 144 167 165 159 155 185 105 168 153
12 12 9 12 11 8 2 1 357 354 351 342 340 337 334 336 339 345 356 352 342 336 299 312 295 242 233 203 245 216 190 180 170 167 186 186 196 154 167 164 186 187 164 177 157 123 62
13 7 3 4 6 6 6 5 1 356 352 347 339 336 331 334 341 341 17 350 334 352 291 319 296 289 194 188 274 208 188 169 167 192 181 205 184 167 184 196 174 193 193 157 136 112 185
12 8 5 3 0 0 2 1 1 358 355 346 343 340 332 338 320 350 353 348 336 341 358 352 326 320 314 165 311 187 191 194 178 158 151 197 172 180 187 196 165 204 155 159 162 151 122
16 11 10 5 2 359 356 356 356 356 352 351 349 359 356 8 10 354 341 343 328 43 338 318 242 321 4 316 261 185 188 190 172 146 86 195 186 174 180 156 172 141 101 58 59 86 246
15 13 11 7 3 359 358 357 354 354 353 355 354 23 23 24 346 325 328 325 39 83 238 292 319 322 338 279 275 266 184 190 168 162 168 187 191 142 146 141 171 161 149 111 358 231 218
14 12 10 8 4 2 0 353 352 354 356 360 13 51 34 16 5 346 347 49 56 252 340 329 313 318 356 320 215 254 186 189 232 175 134 163 190 175 180 186 182 192 174 157 176 165 192
13 11 8 8 4 3 3 354 352 354 358 8 61 71 26 7 360 359 342 47 224 358 331 312 319 350 16 341 351 268 200 194 210 205 153 173 200 155 176 153 157 189 207 167 97 357 125
10 10 8 6 6 2 2 359 355 354 358 15 87 51 12 358 6 354 68 345 316 332 325 303 314 31 316 339 5 351 172 202 210 185 238 175 121 200 152 116 337 185 155 156 43 158 206
11 6 7 5 5 4 2 1 359 355 359 22 72 59 5 17 4 43 93 267 308 316 340 310 322 310 303 298 269 289 308 291 203 208 168 164 120 204 134 207 187 140 195 179 134 153 204
8 8 5 5 4 4 3 359 360 358 357 20 41 46 5 360 41 23 4 313 314 316 346 353 308 249 290 321 314 302 321 299 331 219 177 221 136 164 192 279 262 147 199 152 195 210 204
8 7 6 4 3 3 3 1 1 7 3 358 27 344 14 22 48 3 328 303 289 341 354 349 313 20 325 314 326 279 303 330 8 319 208 191 223 126 140 325 343 192 200 204 213 95 195
8 6 5 3 3 3 2 3 359 13 10 17 20 23 7 41 43 60 349 337 350 341 309 350 293 341 348 353 8 311 300 333 339 300 262 327 270 193 199 204 112 134 192 182 196 181 206
9 6 5 3 3 3 3 1 3 9 24 34 31 36 27 304 342 4 334 310 343 344 311 307 321 63 31 315 311 260 23 341 329 330 248 179 190 3 340 165 191 168 193 178 203 217 207
9 7 4 3 3 1 1 1 2 358 22 45 32 353 341 292 317 341 339 333 281 293 257 300 226 281 320 265 262 293 330 27 294 339 331 157 200 104 315 316 209 205 207 199 213 212 224
9 8 6 4 0 359 359 0 0 1 8 38 1 338 309 301 3 44 250 326 308 314 272 240 302 302 281 278 281 271 266 258 264 292 316 311 152 140 229 303 81 308 205 205 215 202 211
7 6 5 3 360 359 358 357 359 359 1 3 353 334 307 284 60 225 301 288 305 309 276 291 307 282 260 299 304 287 259 252 244 250 227 266 283 170 231 69 231 240 226 216 216 213 219
5 3 3 2 360 359 358 359 0 360 358 356 358 331 327 305 266 321 327 283 314 315 282 288 323 302 294 280 268 320 224 219 229 229 222 207 225 165 175 213 244 284 252 190 184 239 221
360 359 0 1 360 0 0 0 7 15 24 21 79 16 324 313 274 323 319 312 322 332 324 278 336 346 56 233 184 229 210 199 212 228 193 201 206 229 150 172 209 232 217 147 92 260 206
359 358 359 360 360 1 5 7 10 18 17 22 43 20 335 283 289 318 316 323 338 322 283 304 337 337 3 343 270 257 283 299 223 176 176 172 184 219 191 206 288 277 322 141 141 253 260
359 2 2 3 2 3 6 11 11 14 13 18 39 10 344 294 294 286 312 305 332 357 338 317 333 7 315 6 343 335 296 233 277 236 184 191 184 189 166 149 257 24 307 179 255 332 342
360 2 4 3 3 4 5 11 14 7 358 14 15 13 337 270 275 305 326 316 334 344 328 319 274 286 325 345 356 322 310 333 329 238 24 255 326 198 186 152 5 8 355 334 328 305 311
Height
1518 1513 1508 1503 1498 1493 1488 1482 1477 1473 1469 1466 1464 1462 1460 1459 1457 1456 1455 1453 1452 1451 1450 1449 1448 1448 1450 1451 1447 1448 1448 1452 1458 1462 1465 1468 1472 1475 1481 1482 1484 1487 1485 1485 1486 1486 1485
1518 1513 1508 1504 1499 1493 1488 1483 1477 1473 1469 1466 1464 1462 1460 1458 1456 1454 1453 1451 1450 1448 1447 1446 1447 1445 1449 1444 1444 1446 1447 1451 1454 1457 1461 1465 1468 1472 1475 1478 1481 1479 1483 1485 1486 1485 1488
1518 1514 1510 1505 1499 1494 1488 1483 1478 1474 1470 1467 1464 1461 1459 1456 1454 1451 1449 1448 1445 1445 1444 1443 1444 1443 1444 1440 1438 1444 1446 1449 1450 1452 1456 1462 1466 1470 1471 1475 1477 1480 1486 1485 1486 1485 1486
1520 1516 1511 1506 1501 1495 1489 1483 1478 1474 1470 1467 1464 1461 1458 1455 1452 1449 1445 1444 1442 1440 1439 1438 1440 1440 1439 1436 1437 1438 1442 1445 1449 1452 1457 1462 1466 1470 1470 1472 1475 1481 1488 1496 1485 1484 1486
1522 1517 1512 1507 1501 1496 1490 1484 1479 1474 1470 1466 1463 1460 1457 1453 1450 1447 1443 1440 1438 1435 1435 1436 1438 1436 1434 1432 1430 1434 1439 1442 1446 1451 1458 1462 1465 1467 1469 1474 1482 1481 1494 1492 1486 1484 1484
1521 1517 1512 1507 1502 1496 1491 1485 1479 1474 1470 1466 1462 1459 1455 1452 1448 1444 1440 1437 1433 1431 1433 1434 1435 1440 1433 1429 1429 1431 1436 1441 1444 1449 1457 1459 1461 1465 1469 1474 1477 1485 1487 1486 1487 1485 1485
1522 1517 1511 1506 1502 1496 1490 1485 1480 1475 1470 1466 1462 1458 1454 1451 1447 1443 1439 1434 1436 1434 1432 1431 1430 1426 1423 1425 1427 1427 1433 1439 1442 1445 1450 1452 1459 1454 1454 1464 1464 1470 1476 1482 1482 1478 1485
1523 1518 1513 1507 1501 1496 1490 1485 1479 1475 1470 1465 1461 1457 1453 1449 1446 1443 1441 1439 1441 1442 1429 1420 1423 1422 1423 1424 1426 1424 1431 1434 1435 1440 1446 1455 1448 1451 1456 1462 1465 1468 1474 1482 1479 1479 1483
1524 1519 1513 1507 1501 1495 1490 1485 1480 1474 1469 1464 1459 1455 1451 1447 1445 1444 1442 1441 1440 1438 1435 1421 1417 1419 1420 1422 1424 1418 1423 1425 1430 1439 1438 1442 1445 1451 1455 1461 1465 1470 1473 1479 1479 1482 1484
1524 1519 1514 1509 1502 1496 1490 1484 1479 1472 1467 1462 1457 1452 1449 1446 1447 1444 1443 1442 1440 1437 1435 1431 1420 1415 1417 1418 1416 1412 1417 1423 1428 1431 1437 1443 1443 1447 1453 1456 1458 1472 1466 1470 1478 1486 1502
1527 1519 1514 1509 1503 1497 1490 1484 1478 1472 1465 1459 1454 1449 1447 1445 1444 1445 1445 1442 1438 1437 1452 1434 1427 1418 1414 1417 1411 1406 1414 1420 1421 1423 1432 1436 1439 1441 1447 1446 1455 1464 1463 1470 1476 1484 1489
1528 1521 1515 1509 1502 1496 1490 1484 1476 1470 1464 1457 1452 1448 1446 1445 1445 1445 1443 1441 1439 1451 1441 1432 1428 1421 1417 1415 1414 1405 1411 1418 1420 1425 1430 1434 1435 1440 1440 1448 1452 1456 1467 1476 1484 1491 1501
1529 1523 1516 1509 1502 1496 1489 1483 1476 1469 1463 1455 1450 1448 1446 1446 1446 1444 1442 1441 1453 1452 1427 1427 1424 1418 1419 1417 1415 1408 1405 1411 1414 1424 1432 1433 1435 1432 1434 1449 1452 1455 1464 1502 1506 1507 1489
1531 1525 1518 1511 1503 1496 1490 1484 1476 1469 1461 1455 1451 1450 1448 1446 1445 1443 1442 1445 1461 1446 1434 1427 1422 1420 1419 1418 1412 1407 1402 1408 1412 1413 1428 1432 1445 1429 1426 1429 1436 1444 1449 1474 1492 1495 1484
1533 1527 1520 1513 1506 1497 1490 1484 1476 1468 1461 1456 1453 1452 1451 1448 1445 1444 1444 1462 1457 1444 1441 1431 1422 1420 1419 1418 1418 1409 1399 1403 1404 1407 1412 1419 1427 1423 1423 1423 1428 1447 1451 1445 1469 1476 1482
1535 1529 1522 1515 1507 1500 1491 1484 1476 1469 1461 1456 1455 1453 1452 1449 1446 1445 1448 1454 1449 1442 1439 1435 1431 1429 1427 1421 1417 1413 1400 1397 1402 1400 1399 1407 1426 1422 1423 1424 1428 1426 1432 1453 1465 1480 1476
1534 1528 1522 1515 1508 1500 1492 1485 1477 1470 1462 1457 1456 1455 1455 1451 1448 1447 1463 1459 1449 1442 1439 1437 1435 1429 1426 1424 1422 1419 1410 1397 1397 1398 1401 1402 1411 1429 1425 1422 1419 1433 1432 1438 1443 1461 1453
1536 1530 1523 1516 1508 1501 1494 1486 1479 1471 1463 1460 1457 1460 1458 1454 1454 1458 1464 1456 1451 1444 1439 1437 1436 1432 1427 1423 1418 1416 1413 1411 1400 1396 1402 1401 1406 1422 1420 1419 1418 1420 1420 1432 1437 1450 1460
1539 1532 1525 1518 1511 1503 1496 1487 1479 1473 1468 1463 1462 1461 1461 1457 1465 1464 1461 1455 1451 1446 1444 1438 1433 1432 1431 1426 1424 1419 1415 1412 1411 1404 1398 1398 1405 1423 1425 1423 1421 1417 1419 1415 1420 1433 1448
1539 1533 1528 1521 1513 1505 1497 1490 1482 1474 1470 1467 1465 1468 1464 1464 1467 1469 1464 1459 1454 1450 1446 1446 1439 1431 1433 1430 1427 1427 1418 1411 1411 1409 1407 1406 1403 1400 1404 1394 1413 1415 1413 1416 1422 1442 1434
1540 1533 1526 1519 1512 1506 1498 1490 1485 1477 1473 1471 1471 1473 1473 1477 1471 1470 1468 1464 1462 1460 1452 1446 1444 1442 1442 1444 1440 1427 1420 1415 1410 1406 1404 1409 1412 1408 1403 1400 1402 1409 1409 1417 1420 1415 1428
1540 1533 1526 1519 1512 1506 1500 1494 1487 1481 1476 1475 1477 1478 1474 1471 1470 1469 1469 1470 1468 1462 1456 1447 1448 1443 1444 1443 1436 1431 1425 1421 1419 1413 1408 1403 1412 1416 1418 1407 1402 1407 1405 1409 1410 1410 1414
1540 1533 1526 1520 1513 1507 1500 1494 1489 1484 1479 1478 1480 1479 1476 1471 1470 1472 1474 1467 1463 1460 1450 1446 1444 1441 1435 1427 1431 1430 1425 1425 1421 1424 1421 1416 1412 1418 1422 1413 1413 1417 1405 1400 1401 1406 1405
1540 1533 1527 1520 1512 1505 1500 1495 1491 1486 1483 1481 1481 1480 1477 1477 1473 1474 1468 1465 1460 1457 1455 1442 1441 1439 1431 1427 1422 1416 1416 1417 1418 1417 1421 1416 1409 1411 1411 1422 1418 1399 1394 1391 1394 1395 1399
1541 1535 1528 1521 1514 1507 1499 1492 1488 1486 1484 1482 1480 1481 1481 1478 1474 1471 1468 1463 1456 1450 1446 1442 1438 1433 1426 1428 1423 1419 1409 1409 1405 1405 1407 1412 1413 1407 1406 1407 1405 1397 1393 1392 1396 1392 1391
1542 1535 1529 1521 1514 1505 1499 1494 1489 1484 1482 1481 1481 1481 1481 1481 1475 1471 1468 1465 1461 1455 1445 1438 1433 1427 1424 1421 1423 1415 1397 1397 1400 1393 1397 1402 1404 1402 1402 1404 1402 1377 1382 1382 1390 1395 1384
1542 1536 1529 1522 1514 1506 1499 1495 1490 1487 1484 1482 1482 1480 1480 1480 1473 1472 1470 1468 1466 1460 1454 1443 1437 1427 1425 1422 1415 1401 1391 1387 1389 1383 1389 1390 1393 1392 1391 1394 1399 1385 1381 1379 1401 1382 1379
1542 1535 1528 1521 1514 1507 1501 1496 1493 1489 1486 1483 1482 1481 1481 1478 1473 1471 1470 1468 1466 1464 1459 1451 1441 1438 1432 1428 1426 1417 1399 1389 1395 1390 1382 1380 1385 1385 1391 1393 1396 1389 1383 1389 1383 1379 1381
1541 1535 1528 1521 1514 1507 1501 1497 1494 1490 1488 1484 1482 1481 1478 1477 1472 1469 1467 1466 1466 1466 1462 1455 1452 1447 1443 1440 1438 1432 1419 1404 1395 1391 1389 1387 1401 1387 1385 1388 1394 1394 1393 1392 1389 1384 1382